Home   Weather   Easter Island   Past weeks
Flag for Chile

Past Weather in Easter Island, Chile — Yesterday and Last 2 Weeks

Now
68 °F

Partly cloudy.


Feels Like: 68 °F
Forecast: 72 / 63 °F
Wind: 5 mph from West

Location: Isla De Pascua

Current Time: May 22, 2019 at 2:53:09 am

Latest Report: May 22, 2019 at 2:00 am


Visibility: N/A

Pressure: 29.98 "Hg

Humidity: 69%

Dew Point: 57 °F

Location of Easter IslandLocation

Past Weather in Easter Island — Graph

°F

Easter Island Temperature Yesterday

Maximum temperature yesterday: 75 °F (at 2:00 pm)
Minimum temperature yesterday: 70 °F (at 3:00 am)
Average temperature yesterday: 72 °F

High & Low Weather Summary for the Past Weeks

 TemperatureHumidityPressure
High77 °F (May 10, 2:00 pm)100% (May 10, 2:00 am)30.39 "Hg (May 10, 2:00 am)
Low50 °F (May 18, 5:00 am)53% (May 15, 12:00 am)29.86 "Hg (May 20, 5:00 pm)
Average69 °F83%30.11 "Hg
* Reported May 7 1:00 am — May 22 1:00 am, Easter Island. Weather by CustomWeather, © 2019

Note: Actual official high and low records may vary slightly from our data, if they occured in-between our weather recording intervals... More about our weather records

Advertising

Easter Island Weather History for the Previous 24 Hours

Scroll right to see more
 ConditionsComfort  
Time TempWeatherWind HumidityBarometerVisibility
1:00 am
Wed, May 22
70 °FPassing clouds.6 mph69%29.98 "HgN/A
12:00 am70 °FPartly cloudy.5 mph69%29.98 "HgN/A
11:00 pm
Tue, May 21
70 °FPassing clouds.6 mph60%29.98 "HgN/A
10:00 pm70 °FPassing clouds.7 mph69%29.98 "HgN/A
9:00 pm70 °FPassing clouds.8 mph69%29.95 "HgN/A
8:00 pm72 °FPassing clouds.12 mph73%29.95 "HgN/A
7:00 pm70 °FBroken clouds.6 mph73%29.92 "HgN/A
6:00 pm72 °FPartly sunny.8 mph73%29.92 "HgN/A
5:00 pm73 °FPartly sunny.8 mph69%29.92 "HgN/A
4:00 pm73 °FBroken clouds.9 mph69%29.89 "HgN/A
3:00 pm75 °FBroken clouds.12 mph69%29.92 "HgN/A
2:00 pm75 °FBroken clouds.12 mph69%29.92 "HgN/A
1:00 pm73 °FBroken clouds.9 mph74%29.95 "HgN/A
12:00 pm73 °FBroken clouds.9 mph69%29.95 "HgN/A
11:00 am73 °FPartly sunny.8 mph74%29.95 "HgN/A
10:00 am72 °FPartly sunny.9 mph78%29.92 "HgN/A
9:00 am72 °FOvercast.10 mph78%29.89 "HgN/A
8:00 am72 °FMostly cloudy.14 mph83%29.89 "HgN/A
7:00 am72 °FMostly cloudy.8 mph83%29.86 "HgN/A
6:00 am70 °FPartly cloudy.15 mph94%29.86 "HgN/A
5:00 am70 °FMostly cloudy.8 mph100%29.86 "HgN/A
4:00 am70 °FSprinkles. Mostly cloudy.10 mph100%29.89 "HgN/A
3:00 am70 °FLots of rain. Mostly cloudy.16 mph100%29.89 "Hg2 mi
2:00 am73 °FPartly cloudy.22 mph100%29.89 "HgN/A
Weather by CustomWeather, © 2019

See weather overview